| time (UTC) | temp F | wind direction | speed knots | gust knots | rain 1hr in | rain 24hr in | rain mn in | humidity % | barometer mb |
| 20260903045643 | 63 | 199 | 1.7 | 2.6 | 0.00 | 0.02 | 0.02 | 99 | 1019.0 |
| 20260903044641 | 63 | 199 | 1.7 | 2.6 | 0.02 | 0.02 | 0.02 | 99 | 1019.5 |
| 20260903043640 | 63 | 158 | 0.0 | 2.6 | 0.00 | 0.01 | 0.01 | 99 | 1019.2 |
| 20260903042638 | 63 | 145 | 2.6 | 3.5 | 0.02 | 0.01 | 0.01 | 99 | 1019.1 |
| 20260903041635 | 64 | 171 | 0.0 | 0.9 | 0.05 | 0.01 | 0.01 | 99 | 1020.1 |
| 20260903040630 | 64 | 228 | 0.0 | 2.6 | 0.00 | 0.00 | 0.00 | 99 | 1020.5 |
| 20260903035627 | 64 | 293 | 0.0 | 0.9 | 0.00 | 0.35 | 0.35 | 99 | 1020.5 |
| 20260903034624 | 63 | 203 | 3.5 | 4.3 | 0.00 | 0.35 | 0.35 | 99 | 1019.6 |
| 20260903033620 | 63 | 185 | 0.0 | 1.7 | 0.00 | 0.35 | 0.35 | 99 | 1019.5 |
| 20260903032615 | 64 | 142 | 0.0 | 4.3 | 0.00 | 0.35 | 0.35 | 99 | 1019.5 |
| 20260903031611 | 64 | 211 | 3.5 | 4.3 | 0.02 | 0.35 | 0.35 | 99 | 1020.5 |
| 20260903030608 | 64 | 193 | 1.7 | 11.3 | 0.05 | 0.35 | 0.35 | 99 | 1020.6 |
| 20260903025604 | 63 | 152 | 2.6 | 6.1 | 0.07 | 0.35 | 0.35 | 99 | 1020.9 |
| 20260903024600 | 63 | 152 | 2.6 | 6.1 | 0.07 | 0.35 | 0.35 | 99 | 1020.9 |
| 20260903023556 | 63 | 172 | 0.9 | 1.7 | 0.14 | 0.34 | 0.34 | 99 | 1021.3 |
| 20260903022556 | 63 | 107 | 2.6 | 6.1 | 0.28 | 0.31 | 0.31 | 99 | 1021.7 |
| 20260903021556 | 69 | 219 | 3.5 | 5.2 | 0.02 | 0.07 | 0.07 | 99 | 1021.1 |
| 20260903020552 | 69 | 231 | 10.4 | 12.2 | 0.00 | 0.07 | 0.07 | 99 | 1018.9 |
| 20260903015548 | 69 | 231 | 10.4 | 12.2 | 0.00 | 0.07 | 0.07 | 99 | 1018.9 |
| 20260903014548 | 69 | 189 | 1.7 | 13.9 | 0.00 | 0.07 | 0.07 | 99 | 1018.8 |
| 20260903013543 | 69 | 156 | 1.7 | 4.3 | 0.00 | 0.07 | 0.07 | 99 | 1019.2 |
| 20260903012543 | 69 | 164 | 1.7 | 5.2 | 0.00 | 0.07 | 0.07 | 99 | 1019.0 |
| 20260903011542 | 69 | 207 | 3.5 | 13.0 | 0.00 | 0.07 | 0.07 | 99 | 1018.8 |
| 20260903010538 | 70 | 152 | 2.6 | 4.3 | 0.00 | 0.07 | 0.07 | 99 | 1018.8 |
| 20260903005537 | 70 | 217 | 3.5 | 6.1 | 0.00 | 0.07 | 0.07 | 99 | 1019.1 |
| 20260903004532 | 70 | 211 | 7.8 | 7.8 | 0.00 | 0.07 | 0.07 | 99 | 1018.5 |
| 20260903003529 | 70 | 185 | 2.6 | 4.3 | 0.00 | 0.07 | 0.07 | 99 | 1017.7 |
| 20260903002524 | 70 | 196 | 1.7 | 5.2 | 0.00 | 0.07 | 0.07 | 99 | 1018.0 |
| 20260903001519 | 70 | 182 | 0.0 | 1.7 | 0.00 | 0.07 | 0.07 | 99 | 1018.5 |
| 20260903000514 | 70 | 225 | 0.9 | 5.2 | 0.00 | 0.07 | 0.07 | 99 | 1018.7 |
| 20260902235513 | 70 | 201 | 2.6 | 7.8 | 0.00 | 0.07 | 0.07 | 99 | 1018.5 |
| 20260902234509 | 70 | 143 | 2.6 | 4.3 | 0.00 | 0.07 | 0.07 | 98 | 1018.5 |
| 20260902233507 | 70 | 206 | 5.2 | 7.0 | 0.00 | 0.07 | 0.07 | 98 | 1018.9 |
| 20260902232507 | 71 | 196 | 1.7 | 4.3 | 0.00 | 0.07 | 0.07 | 98 | 1018.6 |
| 20260902231502 | 71 | 213 | 3.5 | 4.3 | 0.00 | 0.07 | 0.07 | 98 | 1018.5 |
| 20260902230457 | 71 | 166 | 1.7 | 5.2 | 0.00 | 0.07 | 0.07 | 97 | 1017.8 |
| 20260902225457 | 71 | 194 | 2.6 | 3.5 | 0.00 | 0.07 | 0.07 | 97 | 1018.0 |
| 20260902224456 | 72 | 201 | 5.2 | 9.6 | 0.00 | 0.07 | 0.07 | 96 | 1018.4 |
| 20260902223454 | 72 | 210 | 7.0 | 7.0 | 0.00 | 0.07 | 0.07 | 96 | 1018.1 |
| 20260902222452 | 72 | 197 | 1.7 | 4.3 | 0.00 | 0.07 | 0.07 | 96 | 1018.3 |
| 20260902221451 | 72 | 209 | 5.2 | 7.8 | 0.00 | 0.07 | 0.07 | 95 | 1018.4 |
| 20260902220447 | 72 | 180 | 1.7 | 7.8 | 0.00 | 0.07 | 0.07 | 95 | 1018.6 |
| 20260902215444 | 72 | 222 | 3.5 | 5.2 | 0.00 | 0.07 | 0.07 | 94 | 1018.7 |
| 20260902214438 | 72 | 171 | 1.7 | 7.0 | 0.00 | 0.07 | 0.07 | 94 | 1018.8 |
| 20260902213435 | 73 | 201 | 1.7 | 7.0 | 0.00 | 0.07 | 0.07 | 94 | 1019.1 |
| 20260902212429 | 73 | 208 | 6.1 | 7.0 | 0.00 | 0.07 | 0.07 | 92 | 1019.1 |
| 20260902211427 | 73 | 211 | 2.6 | 5.2 | 0.00 | 0.07 | 0.07 | 92 | 1019.0 |
| 20260902210422 | 73 | 197 | 1.7 | 5.2 | 0.00 | 0.07 | 0.07 | 92 | 1019.2 |
| 20260902205421 | 74 | 205 | 5.2 | 7.8 | 0.00 | 0.07 | 0.07 | 90 | 1019.0 |
| 20260902204417 | 74 | 189 | 1.7 | 7.0 | 0.00 | 0.07 | 0.07 | 93 | 1018.8 |
| 20260902203413 | 73 | 181 | 2.6 | 9.6 | 0.00 | 0.07 | 0.07 | 94 | 1018.9 |
| 20260902202408 | 73 | 179 | 1.7 | 3.5 | 0.00 | 0.07 | 0.07 | 94 | 1019.2 |
| 20260902201405 | 72 | 216 | 6.1 | 9.6 | 0.00 | 0.07 | 0.07 | 97 | 1019.3 |
| 20260902200401 | 71 | 209 | 6.1 | 6.1 | 0.00 | 0.07 | 0.07 | 97 | 1019.3 |
| 20260902195355 | 71 | 174 | 1.7 | 3.5 | 0.00 | 0.07 | 0.07 | 98 | 1019.1 |
| 20260902194356 | 71 | 178 | 1.7 | 3.5 | 0.00 | 0.07 | 0.07 | 98 | 1019.5 |
| 20260902193353 | 71 | 198 | 2.6 | 5.2 | 0.00 | 0.07 | 0.07 | 99 | 1019.9 |
| 20260902192350 | 71 | 223 | 3.5 | 7.8 | 0.00 | 0.07 | 0.07 | 99 | 1020.0 |
| 20260902191346 | 71 | 209 | 4.3 | 5.2 | 0.00 | 0.07 | 0.07 | 99 | 1019.9 |
| 20260902190347 | 72 | 182 | 0.9 | 4.3 | 0.00 | 0.07 | 0.07 | 99 | 1019.6 |
| 20260902185344 | 71 | 207 | 4.3 | 6.1 | 0.00 | 0.07 | 0.07 | 99 | 1019.8 |
| 20260902184340 | 71 | 208 | 2.6 | 5.2 | 0.00 | 0.07 | 0.07 | 99 | 1020.1 |
| 20260902183338 | 72 | 215 | 7.0 | 7.8 | 0.00 | 0.07 | 0.07 | 98 | 1020.0 |
| 20260902182336 | 71 | 207 | 0.9 | 3.5 | 0.00 | 0.07 | 0.07 | 99 | 1020.0 |
| 20260902181333 | 71 | 181 | 1.7 | 3.5 | 0.00 | 0.07 | 0.07 | 99 | 1019.8 |
| 20260902180329 | 70 | 209 | 1.7 | 5.2 | 0.00 | 0.07 | 0.07 | 99 | 1019.8 |
| 20260902175325 | 70 | 185 | 1.7 | 3.5 | 0.00 | 0.07 | 0.07 | 99 | 1019.8 |
| 20260902174323 | 69 | 148 | 1.7 | 4.3 | 0.00 | 0.07 | 0.07 | 99 | 1020.3 |
| 20260902173318 | 69 | 207 | 4.3 | 6.1 | 0.00 | 0.07 | 0.07 | 99 | 1020.5 |
| 20260902172318 | 69 | 218 | 4.3 | 13.0 | 0.00 | 0.07 | 0.07 | 99 | 1020.4 |
| 20260902171314 | 69 | 176 | 1.7 | 3.5 | 0.00 | 0.07 | 0.07 | 99 | 1020.7 |
| 20260902170312 | 69 | 211 | 5.2 | 7.8 | 0.00 | 0.07 | 0.07 | 99 | 1020.7 |
| 20260902165309 | 69 | 196 | 1.7 | 5.2 | 0.00 | 0.07 | 0.07 | 99 | 1020.8 |
| 20260902164302 | 70 | 191 | 4.3 | 9.6 | 0.00 | 0.07 | 0.07 | 99 | 1020.9 |
| 20260902163256 | 70 | 180 | 0.0 | 5.2 | 0.00 | 0.07 | 0.07 | 99 | 1020.8 |
| 20260902162256 | 70 | 221 | 7.8 | 8.7 | 0.00 | 0.07 | 0.07 | 99 | 1020.6 |
| 20260902161252 | 69 | 218 | 4.3 | 7.8 | 0.00 | 0.07 | 0.07 | 99 | 1020.7 |
| 20260902160248 | 69 | 209 | 3.5 | 6.1 | 0.00 | 0.07 | 0.07 | 99 | 1020.4 |
| 20260902155245 | 69 | 220 | 5.2 | 5.2 | 0.00 | 0.07 | 0.07 | 99 | 1020.5 |
| 20260902154242 | 69 | 205 | 1.7 | 4.3 | 0.00 | 0.07 | 0.07 | 99 | 1020.6 |
| 20260902153241 | 69 | 196 | 2.6 | 7.8 | 0.00 | 0.07 | 0.07 | 99 | 1020.5 |
| 20260902152238 | 69 | 173 | 1.7 | 4.3 | 0.00 | 0.07 | 0.07 | 99 | 1020.4 |
| 20260902151234 | 69 | 206 | 3.5 | 7.0 | 0.05 | 0.07 | 0.07 | 99 | 1020.4 |
| 20260902150231 | 68 | 207 | 5.2 | 7.0 | 0.12 | 0.06 | 0.06 | 99 | 1020.9 |
| 20260902145230 | 68 | 174 | 0.9 | 5.2 | 0.07 | 0.04 | 0.04 | 99 | 1020.6 |
| 20260902144228 | 68 | 202 | 2.6 | 6.1 | 0.05 | 0.03 | 0.03 | 99 | 1020.6 |
| 20260902143224 | 68 | 152 | 0.9 | 5.2 | 0.02 | 0.02 | 0.02 | 99 | 1020.7 |
| 20260902142221 | 68 | 201 | 2.6 | 4.3 | 0.05 | 0.02 | 0.02 | 99 | 1020.6 |
| 20260902141217 | 68 | 180 | 0.9 | 1.7 | 0.00 | 0.01 | 0.01 | 99 | 1020.9 |
| 20260902140212 | 68 | 157 | 0.0 | 2.6 | 0.02 | 0.01 | 0.01 | 99 | 1020.9 |
| 20260902135207 | 68 | 206 | 2.6 | 3.5 | 0.00 | 0.00 | 0.00 | 99 | 1021.5 |
| 20260902134201 | 68 | 240 | 6.1 | 7.0 | 0.00 | 0.00 | 0.00 | 99 | 1021.3 |
| 20260902133156 | 68 | 204 | 4.3 | 6.1 | 0.00 | 0.00 | 0.00 | 99 | 1020.7 |
| 20260902132153 | 68 | 192 | 0.0 | 5.2 | 0.00 | 0.00 | 0.00 | 99 | 1020.8 |
| 20260902131150 | 68 | 165 | 1.7 | 4.3 | 0.00 | 0.00 | 0.00 | 99 | 1020.8 |
| 20260902130147 | 68 | 163 | 1.7 | 7.0 | 0.00 | 0.00 | 0.00 | 99 | 1020.7 |
| 20260902125143 | 68 | 206 | 1.7 | 5.2 | 0.00 | 0.00 | 0.00 | 99 | 1020.6 |
| 20260902124140 | 68 | 210 | 4.3 | 7.8 | 0.00 | 0.00 | 0.00 | 99 | 1020.5 |
| 20260902123136 | 68 | 209 | 1.7 | 5.2 | 0.00 | 0.00 | 0.00 | 99 | 1020.5 |
| 20260902122132 | 68 | 190 | 0.9 | 7.0 | 0.00 | 0.00 | 0.00 | 99 | 1020.0 |
| 20260902121127 | 67 | 170 | 1.7 | 6.1 | 0.00 | 0.00 | 0.00 | 99 | 1020.0 |
| 20260902120126 | 67 | 203 | 3.5 | 5.2 | 0.00 | 0.00 | 0.00 | 99 | 1019.8 |
| 20260902115122 | 67 | 205 | 1.7 | 3.5 | 0.00 | 0.00 | 0.00 | 99 | 1019.3 |
| 20260902114117 | 66 | 168 | 0.9 | 3.5 | 0.00 | 0.00 | 0.00 | 99 | 1019.5 |
| 20260902113113 | 66 | 177 | 1.7 | 2.6 | 0.00 | 0.00 | 0.00 | 99 | 1019.7 |
| 20260902112112 | 65 | 197 | 0.0 | 3.5 | 0.00 | 0.00 | 0.00 | 99 | 1020.0 |
| 20260902111108 | 65 | 203 | 3.5 | 3.5 | 0.00 | 0.00 | 0.00 | 99 | 1019.6 |
| 20260902110107 | 64 | 221 | 1.7 | 3.5 | 0.00 | 0.00 | 0.00 | 99 | 1019.7 |
| 20260902105106 | 65 | 160 | 0.0 | 1.7 | 0.00 | 0.00 | 0.00 | 99 | 1019.7 |
| 20260902104102 | 65 | 171 | 2.6 | 3.5 | 0.00 | 0.00 | 0.00 | 99 | 1019.7 |
| 20260902103058 | 65 | 153 | 1.7 | 3.5 | 0.00 | 0.00 | 0.00 | 99 | 1019.7 |
| 20260902102057 | 65 | 156 | 0.9 | 1.7 | 0.00 | 0.00 | 0.00 | 99 | 1019.8 |
| 20260902101056 | 65 | 198 | 0.9 | 1.7 | 0.00 | 0.00 | 0.00 | 99 | 1020.1 |
| 20260902100052 | 65 | 203 | 1.7 | 2.6 | 0.00 | 0.00 | 0.00 | 99 | 1020.1 |
| 20260902095050 | 65 | 162 | 0.0 | 4.3 | 0.00 | 0.00 | 0.00 | 99 | 1019.9 |
| 20260902094048 | 65 | 148 | 0.0 | 3.5 | 0.00 | 0.00 | 0.00 | 99 | 1019.8 |
| 20260902093042 | 64 | 197 | 4.3 | 5.2 | 0.00 | 0.00 | 0.00 | 99 | 1019.7 |
| 20260902092038 | 64 | 176 | 0.9 | 2.6 | 0.00 | 0.00 | 0.00 | 99 | 1019.9 |
| 20260902091035 | 64 | 135 | 0.0 | 1.7 | 0.00 | 0.00 | 0.00 | 99 | 1019.7 |
| 20260902090030 | 64 | 118 | 1.7 | 1.7 | 0.00 | 0.00 | 0.00 | 99 | 1019.8 |
| 20260902085025 | 64 | 189 | 0.0 | 2.6 | 0.00 | 0.00 | 0.00 | 99 | 1019.8 |
| 20260902084023 | 64 | 236 | 0.9 | 3.5 | 0.00 | 0.00 | 0.00 | 99 | 1019.6 |
| 20260902083018 | 65 | 211 | 2.6 | 2.6 | 0.00 | 0.00 | 0.00 | 99 | 1019.6 |
| 20260902082016 | 65 | 193 | 0.9 | 4.3 | 0.00 | 0.00 | 0.00 | 99 | 1019.8 |
| 20260902081012 | 65 | 155 | 0.0 | 2.6 | 0.00 | 0.00 | 0.00 | 99 | 1019.4 |
| 20260902080010 | 64 | 166 | 1.7 | 1.7 | 0.00 | 0.00 | 0.00 | 99 | 1019.6 |
| 20260902075006 | 65 | 206 | 1.7 | 2.6 | 0.00 | 0.00 | 0.00 | 99 | 1019.4 |
| 20260902074006 | 64 | 203 | 0.0 | 1.7 | 0.00 | 0.00 | 0.00 | 99 | 1019.3 |
| 20260902073005 | 64 | 140 | 0.9 | 1.7 | 0.00 | 0.00 | 0.00 | 99 | 1019.2 |
| 20260902072003 | 64 | 170 | 0.0 | 0.9 | 0.00 | 0.00 | 0.00 | 99 | 1019.4 |
| 20260902070958 | 65 | 195 | 1.7 | 2.6 | 0.00 | 0.00 | 0.00 | 99 | 1019.5 |
| 20260902065958 | 65 | 205 | 0.0 | 2.6 | 0.00 | 0.00 | 0.00 | 99 | 1019.6 |
| 20260902064954 | 64 | 242 | 0.9 | 2.6 | 0.00 | 0.00 | 0.00 | 99 | 1019.5 |
| 20260902063952 | 65 | 228 | 1.7 | 2.6 | 0.02 | 0.00 | 0.00 | 99 | 1019.7 |
| 20260902062947 | 65 | 177 | 0.0 | 1.7 | 0.00 | 0.00 | 0.00 | 99 | 1019.8 |
| 20260902061946 | 66 | 225 | 0.0 | 2.6 | 0.00 | 0.00 | 0.00 | 99 | 1019.6 |
| 20260902060943 | 65 | 197 | 0.0 | 1.7 | 0.00 | 0.00 | 0.00 | 99 | 1019.7 |
| 20260902055941 | 65 | 189 | 0.0 | 1.7 | 0.00 | 0.00 | 0.00 | 99 | 1019.7 |
| 20260902054938 | 65 | 180 | 0.0 | 2.6 | 0.00 | 0.00 | 0.00 | 99 | 1019.7 |
| 20260902053934 | 65 | 211 | 0.0 | 2.6 | 0.00 | 0.00 | 0.00 | 99 | 1019.7 |
| 20260902052928 | 66 | 190 | 0.9 | 1.7 | 0.00 | 0.00 | 0.00 | 99 | 1019.7 |
| 20260902051924 | 65 | 106 | 0.0 | 1.7 | 0.00 | 0.00 | 0.00 | 99 | 1019.7 |
| 20260902050923 | 65 | 156 | 1.7 | 1.7 | 0.00 | 0.00 | 0.00 | 99 | 1019.9 |